[[{"header":{"parameterUnit":"m.s-1","parameterCategory":2,"la1":30.2992,"la2":30.254,"lo1":-89.0895,"lo2":-89.0443,"dy":0.0025,"dx":0.0025,"nx":19,"ny":19,"refTime":"2026-05-06T03:00:00:Z","depth":"0","parameterNumber":2,"parameterNumberName":"U-component_of_CURRENTS"},"data":[0,0,0,-0.1583,-0.1586,-0.172,-0.1721,-0.1775,-0.1776,0,0,0,0,0,0,0,0,0,0,0,-0.1517,-0.1517,-0.1583,-0.1587,-0.172,-0.1721,-0.1775,-0.1776,0,0,0,0,0,0,0,0,0,0,0,-0.1516,-0.1517,-0.1518,-0.1587,-0.172,-0.1721,-0.1775,-0.1702,0,0,0,0,0,0,0,0,0,0,-0.1586,-0.153,-0.1517,-0.1518,-0.1588,-0.172,-0.1721,-0.1699,-0.1706,-0.1684,0,-0.17,0,-0.1748,-0.1777,-0.1777,0,0,0,-0.158,-0.1524,-0.1578,-0.1518,-0.1589,-0.172,-0.1658,-0.1704,-0.1712,-0.1692,-0.1701,-0.1705,-0.1749,-0.1777,-0.1778,-0.1908,-0.1909,0,0,-0.1573,-0.1524,-0.1573,-0.1583,-0.1616,-0.1654,-0.1662,-0.171,-0.17,-0.1701,-0.1707,-0.175,-0.1778,-0.1778,-0.1907,-0.1909,0,0,0,-0.1556,-0.1518,-0.1573,-0.1579,-0.1618,-0.1658,-0.1668,-0.1698,-0.1721,-0.1708,-0.1751,-0.1778,-0.1778,-0.1906,-0.1908,-0.1937,0,0,0,-0.1551,-0.151,-0.1569,-0.1539,-0.1618,-0.1673,-0.1653,-0.1717,-0.1726,-0.1751,-0.1778,-0.1778,-0.1904,-0.1907,-0.1933,-0.1874,0,0,0,-0.1512,-0.1506,-0.1523,-0.1537,-0.1603,-0.1675,-0.1701,-0.1721,-0.1751,-0.1777,-0.1778,-0.1903,-0.1906,-0.1929,-0.1871,-0.1891,0,0,0,-0.1456,-0.1498,-0.1521,-0.1589,-0.1602,-0.1746,-0.1701,-0.1788,-0.182,-0.1778,-0.1904,-0.1907,-0.1928,-0.187,-0.1889,-0.1262,-0.1219,0,0,-0.1489,-0.1499,-0.155,-0.1576,-0.1691,-0.1728,-0.1848,-0.1857,-0.1855,-0.1875,-0.188,-0.1934,-0.1871,-0.1891,-0.1435,-0.1385,0,0,0,-0.155,-0.1556,-0.1607,-0.1669,-0.1785,-0.1848,-0.1907,-0.1926,-0.1962,-0.189,-0.1987,-0.1946,-0.1957,-0.1577,-0.1541,-0.1339,-0.1921,-0.1921,-0.1921,-0.146,-0.1551,-0.1605,-0.1711,-0.1807,-0.1939,-0.1984,-0.2015,-0.2036,-0.2068,-0.2012,-0.2094,-0.1693,-0.1658,-0.1463,-0.2099,-0.2099,-0.2099,-0.2099,-0.1417,-0.1426,-0.1543,-0.1616,-0.1743,-0.1838,-0.1997,-0.2033,-0.209,-0.2094,-0.2106,-0.1677,-0.1616,-0.1423,-0.2102,-0.2102,-0.2101,-0.2101,-0.2101,-0.1276,-0.1298,-0.135,-0.1437,-0.1546,-0.1728,-0.1777,-0.1953,-0.2049,-0.2082,-0.1682,-0.1672,-0.1459,-0.2121,-0.212,-0.212,-0.212,-0.212,-0.212,-0.1092,-0.1163,-0.1131,-0.1253,-0.1287,-0.1411,-0.1652,-0.1678,-0.164,-0.1612,-0.1608,-0.1411,-0.2099,-0.2048,-0.2118,-0.2119,-0.2119,-0.2119,-0.2119,-0.0925,-0.0942,-0.0889,-0.0892,-0.0974,-0.0947,-0.1216,-0.106,-0.1132,-0.0954,-0.0751,-0.1355,-0.1265,-0.1287,-0.1217,-0.1069,-0.1069,-0.1069,-0.1068,-0.0774,-0.0793,-0.0679,-0.0628,-0.0632,-0.0731,-0.0433,-0.0334,-0.0184,-0.001,-0.0225,-0.0058,-0.011,0.0046,-0.0006,0.0088,0.0562,0.0563,0.0564,-0.0644,-0.0637,-0.0507,-0.0482,-0.047,-0.042,-0.004,0.0345,0.0658,0.0616,-0.0092,-0.0161,0.0045,-0.0051,0.0159,0.0071,0.0209,0,0]},{"header":{"parameterUnit":"m.s-1","parameterCategory":2,"la1":30.2992,"la2":30.254,"lo1":-89.0895,"lo2":-89.0443,"dy":0.0025,"dx":0.0025,"nx":19,"ny":19,"refTime":"2026-05-06T03:00:00:Z","depth":"0","parameterNumber":3,"parameterNumberName":"V-component_of_CURRENTS"},"data":[0,0,0,0.0044,0.0046,0.0159,0.016,0.0307,0.0308,0,0,0,0,0,0,0,0,0,0,0,-0.0,0.0,0.0044,0.0046,0.0159,0.016,0.0307,0.0308,0,0,0,0,0,0,0,0,0,0,0,-0.0,0.0,0.0,0.0046,0.0159,0.016,0.0307,0.0226,0,0,0,0,0,0,0,0,0,0,0.0118,0.0065,0.0,0.0,0.0047,0.0159,0.016,0.0222,0.0231,0.025,0,0.025,0,0.0275,0.0316,0.0317,0,0,0,0.0067,0.0057,0.0088,0.0,0.0047,0.0159,0.0114,0.0227,0.0237,0.0261,0.0252,0.0258,0.0278,0.0317,0.0318,0.0342,0.0341,0,0,0.0061,0.0027,0.0081,0.0094,0.0055,0.011,0.0117,0.0233,0.0233,0.0253,0.0262,0.028,0.0318,0.0319,0.0343,0.0342,0,0,0,0.0029,0.0022,0.0051,0.0087,0.0104,0.0113,0.0121,0.0229,0.0238,0.0264,0.0282,0.0319,0.032,0.0343,0.0342,0.0047,0,0,0,0.0026,0.0002,0.0048,0.003,0.0101,0.0166,0.0113,0.023,0.0244,0.0281,0.0319,0.0321,0.0344,0.0343,0.0056,-0.01,0,0,0,-0.0001,-0.0,0.0006,0.0027,0.0068,0.0165,0.0182,0.0234,0.0254,0.0317,0.0321,0.0345,0.0343,0.0065,-0.0083,0.0015,0,0,0,-0.0029,-0.0089,0.0004,-0.0071,0.0066,0.0046,0.0182,0.021,0.0251,0.0319,0.0344,0.0343,0.0067,-0.0073,0.0021,0.0395,0.0395,0,0,-0.0134,-0.0102,-0.0155,-0.007,-0.0165,0.0033,-0.0058,0.0079,0.0239,0.0312,0.0313,0.0053,-0.0082,0.0016,0.031,0.0312,0,0,0,-0.021,-0.0252,-0.0262,-0.0292,-0.0248,-0.0255,-0.0095,-0.0021,0.0067,0.0255,0.0107,0.0032,0.0104,0.0345,0.0346,0.0601,0.0336,0.0336,0.0336,-0.0369,-0.0384,-0.049,-0.0507,-0.0519,-0.0437,-0.0418,-0.0278,-0.0103,-0.0092,-0.017,-0.0254,-0.0005,0.0002,0.0255,-0.0106,-0.0107,-0.0108,-0.0108,-0.0548,-0.0607,-0.0657,-0.0761,-0.077,-0.0811,-0.0726,-0.0616,-0.0515,-0.0392,-0.0302,0.0065,-0.0013,0.0258,-0.0127,-0.0124,-0.0121,-0.0119,-0.0118,-0.0629,-0.0661,-0.0737,-0.0876,-0.1005,-0.0994,-0.1009,-0.0947,-0.075,-0.0761,-0.0228,-0.0217,0.0005,-0.0615,-0.0616,-0.0616,-0.0616,-0.0617,-0.0617,-0.0639,-0.0728,-0.0818,-0.0975,-0.1048,-0.113,-0.1145,-0.1024,-0.0705,-0.0505,-0.0495,0.0035,-0.0403,-0.0403,-0.0622,-0.0621,-0.0621,-0.062,-0.062,-0.0688,-0.0703,-0.0829,-0.0912,-0.1073,-0.1063,-0.1107,-0.0726,-0.0561,-0.029,0.021,-0.0262,-0.0084,-0.0076,-0.0061,-0.0179,-0.0179,-0.0179,-0.0179,-0.0666,-0.0704,-0.0806,-0.0907,-0.1007,-0.1027,-0.0702,-0.0343,0.022,0.0538,0.052,0.0697,0.0669,0.0898,0.0884,0.0923,0.1056,0.1057,0.1059,-0.0657,-0.0696,-0.0738,-0.0859,-0.0977,-0.0889,-0.0484,0.0128,0.0887,0.1115,0.0777,0.0725,0.0982,0.0917,0.1282,0.1241,0.1308,0,0]}],[{"header":{"parameterUnit":"m.s-1","parameterCategory":2,"la1":30.2992,"la2":30.254,"lo1":-89.0895,"lo2":-89.0443,"dy":0.0025,"dx":0.0025,"nx":19,"ny":19,"refTime":"2026-05-06T03:00:00:Z","depth":"2","parameterNumber":2,"parameterNumberName":"U-component_of_CURRENTS"},"data":[0,0,0,-0.2082,-0.2084,-0.221,-0.2211,-0.2328,-0.2328,0,0,0,0,0,0,0,0,0,0,0,-0.2035,-0.2035,-0.2082,-0.2084,-0.221,-0.2211,-0.2328,-0.2328,0,0,0,0,0,0,0,0,0,0,0,-0.2034,-0.2035,-0.2035,-0.2084,-0.221,-0.2211,-0.2327,-0.2248,0,0,0,0,0,0,0,0,0,0,-0.2133,-0.212,-0.2035,-0.2035,-0.2085,-0.221,-0.2211,-0.2245,-0.2253,-0.225,0,-0.2255,0,-0.2285,-0.2333,-0.2333,0,0,0,-0.2106,-0.2113,-0.2112,-0.2035,-0.2086,-0.221,-0.216,-0.225,-0.2259,-0.2261,-0.2257,-0.2262,-0.2287,-0.2334,-0.2334,-0.23,-0.23,0,0,-0.2099,-0.2097,-0.2106,-0.2117,-0.2098,-0.2155,-0.2163,-0.2257,-0.2277,-0.2258,-0.2265,-0.2289,-0.2334,-0.2335,-0.2301,-0.23,0,0,0,-0.2064,-0.2092,-0.2091,-0.2111,-0.2133,-0.2158,-0.2168,-0.2274,-0.2262,-0.2267,-0.229,-0.2334,-0.2335,-0.2302,-0.2301,-0.2317,0,0,0,-0.2061,-0.2069,-0.2087,-0.2093,-0.2131,-0.2219,-0.2183,-0.2256,-0.2268,-0.229,-0.2335,-0.2336,-0.2303,-0.2302,-0.2319,-0.2402,0,0,0,-0.2032,-0.2068,-0.2068,-0.2091,-0.2133,-0.2218,-0.2216,-0.226,-0.2281,-0.2333,-0.2336,-0.2304,-0.2302,-0.232,-0.2402,-0.2413,0,0,0,-0.2046,-0.2003,-0.2068,-0.2049,-0.2131,-0.2141,-0.2216,-0.2264,-0.2304,-0.2335,-0.2303,-0.2301,-0.2321,-0.2401,-0.2413,-0.1962,-0.1928,0,0,-0.198,-0.1997,-0.1982,-0.204,-0.204,-0.2127,-0.2155,-0.2252,-0.2265,-0.2276,-0.2276,-0.2318,-0.2401,-0.2413,-0.1839,-0.1808,0,0,0,-0.1953,-0.1948,-0.1956,-0.1992,-0.2021,-0.2123,-0.2186,-0.2208,-0.225,-0.2275,-0.227,-0.2323,-0.2329,-0.2053,-0.2029,-0.2291,-0.2291,-0.2291,-0.2292,-0.1897,-0.1916,-0.1917,-0.1957,-0.1997,-0.2111,-0.2184,-0.2224,-0.2207,-0.2207,-0.2296,-0.2274,-0.1971,-0.195,-0.221,-0.221,-0.221,-0.221,-0.221,-0.1829,-0.183,-0.1917,-0.1916,-0.203,-0.2084,-0.2199,-0.2232,-0.2288,-0.2255,-0.2258,-0.2035,-0.1924,-0.221,-0.221,-0.221,-0.221,-0.221,-0.221,-0.1785,-0.1785,-0.1812,-0.1913,-0.2026,-0.2145,-0.2209,-0.2338,-0.2334,-0.2377,-0.2039,-0.2032,-0.235,-0.2341,-0.2341,-0.2341,-0.2342,-0.2342,-0.2342,-0.1725,-0.1748,-0.1796,-0.1941,-0.2002,-0.2136,-0.2266,-0.2227,-0.2129,-0.2064,-0.2058,-0.2319,-0.2315,-0.2356,-0.2348,-0.2347,-0.2346,-0.2346,-0.2345,-0.1623,-0.1709,-0.1774,-0.1829,-0.1923,-0.1882,-0.202,-0.1762,-0.1785,-0.1617,-0.1854,-0.1864,-0.1834,-0.1844,-0.1872,-0.1741,-0.1741,-0.1741,-0.1741,-0.1602,-0.1641,-0.1666,-0.1655,-0.1679,-0.1695,-0.1298,-0.114,-0.1196,-0.1269,-0.1292,-0.112,-0.115,-0.1079,-0.1108,-0.112,-0.0794,-0.0793,-0.0793,-0.1581,-0.1623,-0.1552,-0.1526,-0.1477,-0.1345,-0.0915,-0.0562,-0.0603,-0.0778,-0.136,-0.1632,-0.1426,-0.1457,-0.1387,-0.1418,-0.1453,0,0]},{"header":{"parameterUnit":"m.s-1","parameterCategory":2,"la1":30.2992,"la2":30.254,"lo1":-89.0895,"lo2":-89.0443,"dy":0.0025,"dx":0.0025,"nx":19,"ny":19,"refTime":"2026-05-06T03:00:00:Z","depth":"2","parameterNumber":3,"parameterNumberName":"V-component_of_CURRENTS"},"data":[0,0,0,-0.0167,-0.0165,-0.0029,-0.0028,0.0201,0.0203,0,0,0,0,0,0,0,0,0,0,0,-0.0206,-0.0206,-0.0167,-0.0165,-0.0029,-0.0028,0.0201,0.0203,0,0,0,0,0,0,0,0,0,0,0,-0.0206,-0.0206,-0.0206,-0.0165,-0.0029,-0.0028,0.02,0.0093,0,0,0,0,0,0,0,0,0,0,-0.0042,-0.0103,-0.0206,-0.0206,-0.0164,-0.0029,-0.0028,0.0088,0.01,0.0143,0,0.0144,0,0.016,0.0216,0.0217,0,0,0,-0.0127,-0.0114,-0.0083,-0.0206,-0.0164,-0.003,-0.008,0.0094,0.0108,0.0159,0.0147,0.0155,0.0164,0.0217,0.0218,0.0246,0.0245,0,0,-0.0135,-0.0167,-0.0092,-0.0075,-0.0153,-0.0084,-0.0076,0.0102,0.011,0.0148,0.016,0.0167,0.0218,0.022,0.0247,0.0246,0,0,0,-0.0182,-0.0172,-0.0145,-0.0084,-0.0074,-0.0081,-0.0071,0.0103,0.011,0.0163,0.017,0.0219,0.0222,0.0249,0.0247,0.0224,0,0,0,-0.0185,-0.0202,-0.0149,-0.0164,-0.0079,0.0007,-0.0075,0.0098,0.0118,0.0169,0.022,0.0224,0.025,0.0248,0.0228,0.0124,0,0,0,-0.0208,-0.0205,-0.0198,-0.0167,-0.0126,0.0004,0.0023,0.0103,0.0121,0.0217,0.0224,0.0251,0.0248,0.0231,0.0131,0.0056,0,0,0,-0.0231,-0.0236,-0.0199,-0.0204,-0.0128,-0.0093,0.0022,0.0063,0.0128,0.0221,0.025,0.0247,0.0232,0.0136,0.0061,0.0276,0.027,0,0,-0.0252,-0.024,-0.0244,-0.0208,-0.0198,-0.0107,-0.007,0.0057,0.0104,0.0206,0.0207,0.0227,0.0132,0.0057,0.0118,0.0117,0,0,0,-0.026,-0.0261,-0.0254,-0.0237,-0.0201,-0.0148,-0.0034,0.0024,0.0106,0.0124,0.0177,0.0114,0.007,0.021,0.0208,0.0234,0.0234,0.0235,0.0235,-0.0331,-0.0303,-0.0316,-0.0276,-0.0255,-0.0168,-0.0111,-0.0023,0.0056,0.0058,0.0065,-0.0069,0.0082,0.0082,0.0076,0.0076,0.0076,0.0076,0.0076,-0.0379,-0.0392,-0.0365,-0.0372,-0.0328,-0.0309,-0.0178,-0.011,-0.0074,-0.0004,-0.0042,0.0137,0.008,0.0073,0.0073,0.0074,0.0074,0.0074,0.0074,-0.0427,-0.0433,-0.0435,-0.0483,-0.0511,-0.0459,-0.0469,-0.0363,-0.02,-0.0206,-0.0095,-0.009,-0.0104,-0.024,-0.0241,-0.0242,-0.0243,-0.0243,-0.0244,-0.0489,-0.0482,-0.0583,-0.0633,-0.0724,-0.0783,-0.071,-0.0608,-0.0381,-0.0199,-0.0195,-0.0178,-0.0168,-0.0127,-0.0256,-0.0254,-0.0252,-0.0251,-0.025,-0.0553,-0.0592,-0.0749,-0.0854,-0.1015,-0.1013,-0.0958,-0.0626,-0.0532,-0.0331,-0.0148,-0.0146,-0.0142,-0.0136,-0.0096,-0.0211,-0.0211,-0.0211,-0.0211,-0.0646,-0.0659,-0.0884,-0.1051,-0.1178,-0.1107,-0.0848,-0.043,-0.0109,0.0134,0.0119,0.0304,0.0296,0.0333,0.0328,0.038,0.0389,0.039,0.039,-0.0742,-0.0807,-0.0964,-0.1091,-0.1222,-0.1096,-0.0707,-0.0022,0.059,0.0411,0.0193,-0.0165,0.0077,0.0075,0.0111,0.0111,0.0186,0,0]}],[{"header":{"parameterUnit":"m.s-1","parameterCategory":2,"la1":30.2992,"la2":30.254,"lo1":-89.0895,"lo2":-89.0443,"dy":0.0025,"dx":0.0025,"nx":19,"ny":19,"refTime":"2026-05-06T03:00:00:Z","depth":"4","parameterNumber":2,"parameterNumberName":"U-component_of_CURRENTS"},"data":[0,0,0,-0.1391,-0.1394,-0.1543,-0.1544,-0.1644,-0.1644,0,0,0,0,0,0,0,0,0,0,0,-0.1339,-0.134,-0.1391,-0.1394,-0.1543,-0.1544,-0.1644,-0.1644,0,0,0,0,0,0,0,0,0,0,0,-0.1339,-0.134,-0.1341,-0.1395,-0.1543,-0.1544,-0.1644,-0.1555,0,0,0,0,0,0,0,0,0,0,-0.1422,-0.139,-0.134,-0.1341,-0.1396,-0.1543,-0.1544,-0.1551,-0.156,-0.1549,0,-0.1576,0,-0.1609,-0.1649,-0.1649,0,0,0,-0.1399,-0.1383,-0.1418,-0.1342,-0.1397,-0.1543,-0.1477,-0.1557,-0.1567,-0.156,-0.1578,-0.1582,-0.1611,-0.1649,-0.1649,-0.1734,-0.1734,0,0,-0.139,-0.137,-0.1411,-0.1424,-0.1439,-0.1472,-0.1482,-0.1564,-0.1576,-0.1578,-0.1585,-0.1612,-0.1649,-0.165,-0.1734,-0.1734,0,0,0,-0.1364,-0.1364,-0.14,-0.1419,-0.1452,-0.1477,-0.1487,-0.1572,-0.1583,-0.1586,-0.1614,-0.165,-0.1651,-0.1733,-0.1734,-0.1771,0,0,0,-0.1359,-0.1348,-0.1396,-0.1386,-0.1451,-0.1528,-0.1494,-0.1578,-0.1589,-0.1613,-0.165,-0.1651,-0.1733,-0.1733,-0.1769,-0.1748,0,0,0,-0.1332,-0.1346,-0.1363,-0.1384,-0.1447,-0.1527,-0.1545,-0.1582,-0.1604,-0.1649,-0.1651,-0.1732,-0.1733,-0.1767,-0.1746,-0.1725,0,0,0,-0.1305,-0.134,-0.1363,-0.142,-0.1445,-0.1547,-0.1545,-0.1623,-0.1666,-0.165,-0.1733,-0.1734,-0.1767,-0.1745,-0.1724,-0.1438,0,0,0,-0.1331,-0.1342,-0.1378,-0.1402,-0.1492,-0.1526,-0.162,-0.167,-0.1674,-0.1698,-0.1702,-0.177,-0.1746,-0.1725,-0.1505,0,0,0,0,-0.1375,-0.1397,-0.1432,-0.1493,-0.1563,-0.1625,-0.1686,-0.1705,-0.175,-0.1704,-0.1781,-0.1765,-0.175,-0.1583,-0.1739,-0.1739,-0.1739,-0.1739,-0.1739,-0.1363,-0.1415,-0.1476,-0.1548,-0.161,-0.1701,-0.1746,-0.1778,-0.179,-0.1813,-0.1806,-0.1824,-0.1653,-0.1837,-0.1837,-0.1837,-0.1837,-0.1837,-0.1837,-0.139,-0.1418,-0.1493,-0.1568,-0.1638,-0.1711,-0.179,-0.1814,-0.1843,-0.1849,-0.1834,-0.1648,-0.1841,-0.1841,-0.184,-0.184,-0.1839,-0.1839,-0.1839,-0.1361,-0.1379,-0.1444,-0.1537,-0.1606,-0.1693,-0.1691,-0.1776,-0.184,-0.1853,-0.1641,-0.1826,-0.1808,-0.1842,-0.1842,-0.1842,-0.1842,-0.1842,-0.1842,-0.1292,-0.1358,-0.1399,-0.1492,-0.152,-0.1548,-0.1623,-0.1626,-0.1724,-0.1619,-0.1842,-0.1824,-0.1824,-0.1807,-0.1839,-0.184,-0.184,-0.184,-0.184,-0.1234,-0.1276,-0.1314,-0.1347,-0.1377,-0.1352,-0.1455,-0.1393,-0.1382,-0.1354,-0.1488,-0.1506,-0.1448,-0.1457,-0.1424,-0.1344,-0.1341,-0.1337,0,-0.1173,-0.1204,-0.1222,-0.1213,-0.116,-0.1215,-0.108,-0.1106,-0.1203,-0.1152,-0.1438,-0.1593,-0.1603,-0.1544,-0.1546,-0.1509,0,0,0,-0.1121,-0.1139,-0.11,-0.1112,-0.1036,-0.0963,-0.1016,-0.0949,-0.1201,-0.1093,-0.1246,-0.1269,-0.1618,-0.1832,-0.1786,-0.1786,-0.1755,0,0]},{"header":{"parameterUnit":"m.s-1","parameterCategory":2,"la1":30.2992,"la2":30.254,"lo1":-89.0895,"lo2":-89.0443,"dy":0.0025,"dx":0.0025,"nx":19,"ny":19,"refTime":"2026-05-06T03:00:00:Z","depth":"4","parameterNumber":3,"parameterNumberName":"V-component_of_CURRENTS"},"data":[0,0,0,-0.0146,-0.0146,-0.0115,-0.0115,-0.0061,-0.006,0,0,0,0,0,0,0,0,0,0,0,-0.0156,-0.0156,-0.0146,-0.0146,-0.0115,-0.0115,-0.0061,-0.006,0,0,0,0,0,0,0,0,0,0,0,-0.0156,-0.0156,-0.0156,-0.0146,-0.0115,-0.0115,-0.0061,-0.0085,0,0,0,0,0,0,0,0,0,0,-0.0116,-0.0133,-0.0156,-0.0156,-0.0146,-0.0115,-0.0115,-0.0087,-0.0084,-0.0074,0,-0.0075,0,-0.0071,-0.0057,-0.0057,0,0,0,-0.0136,-0.0136,-0.0127,-0.0156,-0.0146,-0.0115,-0.0126,-0.0085,-0.0082,-0.007,-0.0075,-0.0073,-0.007,-0.0057,-0.0057,0.0034,0.0034,0,0,-0.0138,-0.0148,-0.013,-0.0126,-0.0145,-0.0127,-0.0125,-0.0083,-0.0083,-0.0074,-0.0071,-0.0069,-0.0057,-0.0056,0.0033,0.0034,0,0,0,-0.0149,-0.0149,-0.0142,-0.0128,-0.0126,-0.0126,-0.0124,-0.0085,-0.0083,-0.0071,-0.0069,-0.0056,-0.0056,0.0032,0.0033,0.0058,0,0,0,-0.015,-0.0156,-0.0143,-0.0148,-0.0127,-0.0108,-0.0127,-0.0085,-0.0081,-0.0069,-0.0056,-0.0055,0.0032,0.0033,0.0056,0.0058,0,0,0,-0.0156,-0.0157,-0.0156,-0.0149,-0.014,-0.0108,-0.0103,-0.0084,-0.008,-0.0057,-0.0055,0.0031,0.0033,0.0054,0.0055,0.0092,0,0,0,-0.0163,-0.0171,-0.0156,-0.0161,-0.014,-0.0115,-0.0103,-0.009,-0.0074,-0.0056,0.0032,0.0033,0.0054,0.0053,0.009,-0.0072,0,0,0,-0.0177,-0.0172,-0.0175,-0.0161,-0.015,-0.0118,-0.0073,-0.0056,-0.004,0.0019,0.0021,0.0057,0.0055,0.0091,0.0022,0,0,0,0,-0.0182,-0.0182,-0.0177,-0.0167,-0.0142,-0.009,-0.0064,-0.0019,0.0043,-0.0024,0.0082,0.008,0.0102,0.0003,0.0041,0.0041,0.004,0.004,0.004,-0.0214,-0.0197,-0.0197,-0.0167,-0.0141,-0.0067,0.0002,0.0074,0.0064,0.0111,0.0119,0.0188,0.0087,0.0145,0.0146,0.0146,0.0146,0.0146,0.0146,-0.024,-0.0245,-0.0208,-0.0206,-0.014,-0.0094,0.0056,0.0098,0.0214,0.0189,0.0209,0.0059,0.0149,0.0148,0.0148,0.0148,0.0147,0.0147,0.0147,-0.0273,-0.0272,-0.0268,-0.0258,-0.0207,-0.0124,-0.004,0.0094,0.0214,0.0266,0.0142,0.0213,0.0189,0.0254,0.0254,0.0254,0.0254,0.0254,0.0254,-0.0317,-0.0306,-0.0342,-0.0316,-0.0321,-0.0266,-0.0103,-0.003,0.0109,0.0156,0.0248,0.0224,0.0221,0.0197,0.0257,0.0257,0.0257,0.0256,0.0256,-0.0368,-0.0377,-0.0427,-0.0452,-0.0451,-0.04,-0.0267,-0.0132,-0.0042,0.0019,0.0118,0.0124,0.01,0.0099,0.007,0.0095,0.0093,0.0091,0,-0.0421,-0.0421,-0.0511,-0.0563,-0.057,-0.0479,-0.041,-0.0308,-0.0118,-0.0094,-0.0035,0.0073,0.0078,0.0043,0.0041,0.0001,0,0,0,-0.0472,-0.0489,-0.0567,-0.0609,-0.0626,-0.0492,-0.0383,-0.0346,-0.0123,-0.0144,0.0045,0.0057,0.0019,0.0266,0.0244,0.024,0.02,0,0]}]]